SCP
0 0 0 0 0 0 0 0 0 0 0 0 0 0 0 0 0 0 0 0 1 1 1 1 0 0 0 0 1 0 0 0 1 1 1 0 0 0 0 0 1 1 1
0 0 0 0 0 0 0 0 0 0 0 0 0 0 0 0 0 0 0 0 1 1 1 0 0 0 0 0 0 0 0 0 1 1 1 1 0 0 0 0 1 1 1
0 0 0 0 0 0 0 0 0 0 0 0 0 0 0 0 0 0 0 0 0 0 0 0 0 0 0 0 0 0 0 0 1 1 1 1 1 1 1 1 1 1 1
0 0 0 0 0 0 0 0 0 0 0 0 0 0 0 0 0 0 0 0 0 0 0 0 0 0 0 0 0 0 0 0 1 1 1 1 1 1 1 1 1 1 1
0 0 0 0 0 0 0 0 0 0 0 0 0 0 0 0 0 0 0 0 0 0 0 0 0 0 0 0 0 0 1 1 1 1 1 1 1 1 1 1 1 1 1
0 0 0 0 0 0 0 0 0 0 0 0 0 0 0 0 0 0 0 0 0 0 0 0 0 0 0 0 0 0 1 1 1 1 1 1 1 1 1 1 1 1 1
0 0 0 0 0 0 0 0 0 0 0 0 0 0 0 0 0 0 0 0 0 0 0 0 0 0 0 0 0 0 0 0 1 1 1 1 1 1 1 1 1 1 1
0 0 0 0 0 0 0 0 0 0 0 0 0 0 0 0 0 0 0 0 0 0 0 0 0 0 0 0 0 0 0 0 0 0 0 1 1 1 1 1 1 1 1
0 0 0 0 0 0 0 0 0 0 0 0 0 0 0 0 0 0 0 0 0 0 0 0 0 0 0 0 0 0 0 0 0 0 0 0 0 0 0 0 1 1 1
0 0 0 0 0 0 0 0 0 0 0 0 0 0 0 0 0 0 0 0 0 0 0 0 0 0 0 0 0 0 0 0 0 0 0 0 0 0 0 0 0 1 1
0 0 0 0 0 0 0 0 0 0 0 0 0 0 0 0 0 0 0 0 0 0 0 0 0 0 0 0 0 0 0 0 0 0 0 0 0 0 1 1 1 1 1
0 0 0 0 0 0 0 0 0 0 0 0 0 0 0 0 0 0 0 0 0 0 0 0 0 0 0 0 0 0 0 0 0 0 0 0 0 1 1 1 1 1 1
0 0 0 0 0 0 0 0 0 0 0 0 0 0 0 0 0 0 0 0 0 0 0 0 0 0 0 0 0 0 0 0 0 0 0 0 0 0 0 1 1 1 1
0 0 0 0 0 0 0 0 0 0 0 0 0 0 0 0 0 0 0 0 0 0 0 0 0 0 0 0 0 0 0 0 0 0 0 0 0 0 0 0 0 0 0
0 0 0 0 0 0 0 0 0 0 0 0 0 0 0 0 0 0 0 0 0 0 0 0 0 0 0 0 0 0 0 0 0 0 0 0 0 0 0 0 0 0 0
0 0 0 0 0 0 0 0 0 0 0 0 1 0 0 0 0 0 0 0 0 0 0 0 0 0 0 0 0 0 0 0 0 0 0 0 0 0 0 0 0 0 0
0 0 0 0 0 0 0 0 0 0 1 1 1 1 0 0 0 0 0 0 0 0 0 0 0 0 0 0 0 0 0 0 0 0 0 0 0 0 0 0 0 0 0
0 0 0 0 0 0 0 0 0 0 1 1 1 1 0 0 0 0 0 0 0 0 0 0 0 0 0 0 0 0 0 0 0 0 0 0 0 0 0 0 0 0 0
0 0 0 0 0 0 0 0 0 0 1 1 0 0 0 0 0 0 0 0 0 0 0 0 0 0 0 0 0 0 0 0 0 0 0 0 0 0 0 0 0 0 0
0 0 0 0 0 0 0 0 0 0 0 0 0 0 0 0 0 0 0 0 0 0 0 0 0 0 0 0 0 0 0 0 0 0 0 0 0 0 0 0 0 0 0
0 0 0 0 0 0 0 0 0 0 0 0 0 0 0 0 0 0 0 0 0 0 0 0 0 0 0 0 0 0 0 0 0 0 0 0 0 0 0 0 0 0 0
0 0 0 0 0 0 0 0 0 0 0 0 0 0 0 0 0 0 0 0 0 0 0 0 0 0 0 0 0 0 0 0 0 0 0 0 0 0 0 0 0 0 0
0 0 0 0 0 0 0 0 0 0 0 0 0 0 0 0 0 0 0 0 0 0 0 0 0 0 0 0 0 0 0 0 0 0 0 0 0 0 0 0 0 0 0
0 0 0 0 0 0 0 0 0 0 0 0 0 0 0 0 0 0 0 0 0 0 0 0 0 0 0 0 0 0 0 0 0 0 0 0 0 0 0 0 0 0 0
0 0 0 0 0 0 0 0 0 0 0 0 0 0 0 0 0 0 0 0 0 0 0 0 0 0 0 0 0 0 0 0 0 0 0 0 0 0 0 0 0 0 0
0 0 0 0 0 0 0 0 0 0 0 0 0 0 0 0 0 0 0 0 0 0 0 0 0 0 0 0 0 0 0 0 0 0 0 0 0 0 0 0 0 0 0
Wind_Speed
2 1 1 1 1 2 3 3 4 5 6 6 5 6 5 5 5 4 4 11 12 11 11 11 10 10 10 10 10 10 9 9 9 9 9 9 9 9 9 9 9 8 7
3 2 2 2 2 2 3 4 5 5 5 5 6 5 5 5 5 5 4 7 12 12 11 11 11 10 10 10 10 10 10 10 10 10 10 10 10 9 8 8 8 8 7
3 3 3 3 2 3 4 4 5 5 5 5 5 5 4 4 5 5 5 4 5 10 13 12 12 12 12 12 11 10 10 10 10 11 11 11 10 9 9 9 8 8 8
4 4 3 3 3 3 4 4 4 4 4 4 4 3 3 4 5 5 4 4 4 5 9 13 13 13 13 12 12 11 11 11 11 11 11 11 11 10 9 9 9 9 9
4 4 3 2 3 3 3 4 3 4 4 4 4 4 4 4 4 5 5 5 5 5 5 9 13 14 13 12 12 12 12 12 12 12 12 12 11 10 10 10 10 10 9
4 4 3 3 4 4 3 4 4 4 3 3 5 5 4 4 4 4 4 4 5 6 5 6 6 8 13 13 12 12 12 12 12 12 12 12 12 11 11 11 10 10 10
4 4 3 3 3 3 3 4 4 5 3 3 4 4 4 5 4 3 3 4 5 5 5 5 4 4 5 11 12 12 12 12 12 13 13 13 13 12 12 11 11 11 10
3 3 4 3 3 3 4 4 4 3 1 1 3 3 2 3 4 4 3 3 4 3 4 5 5 5 4 4 8 12 12 12 12 13 13 13 13 12 12 12 12 11 11
3 3 4 3 3 3 3 3 3 4 2 0 1 3 3 2 1 3 3 3 3 3 3 3 5 5 5 4 4 8 11 12 12 12 12 12 12 12 12 12 13 12 12
3 3 3 4 3 3 3 2 2 2 3 1 1 1 2 4 3 1 2 3 3 3 3 4 4 4 4 4 6 9 11 10 11 11 11 12 12 12 12 12 13 12 12
2 3 3 3 3 2 2 3 3 3 2 2 2 1 2 2 3 4 2 1 2 3 3 3 2 2 3 3 3 7 10 9 10 10 11 11 11 11 12 12 12 12 12
1 2 3 3 3 2 3 3 3 4 3 3 2 2 2 2 2 3 3 2 1 1 3 3 3 2 2 2 4 7 8 8 9 10 10 11 11 11 11 11 12 12 12
1 1 2 3 3 3 3 3 3 3 3 4 3 2 2 2 2 3 4 2 2 0 2 2 2 2 2 2 3 6 7 8 8 9 9 10 10 10 10 11 11 12 11
2 3 3 3 3 3 4 3 3 3 3 3 3 3 2 2 2 3 4 4 3 1 2 1 2 2 1 1 3 4 3 7 7 7 7 8 8 9 9 10 10 11 11
3 4 4 4 3 3 3 4 3 3 3 3 3 3 2 2 2 2 2 3 5 3 0 1 1 1 0 1 2 2 2 5 6 6 6 6 7 7 7 8 9 9 10
3 4 4 4 3 3 3 4 3 3 4 2 2 3 3 1 2 2 2 2 2 4 2 1 1 1 0 1 2 2 2 4 4 5 5 5 5 5 6 6 7 8 8
4 4 4 4 4 3 3 4 3 3 4 3 2 3 2 2 2 1 2 2 2 3 3 0 0 0 1 1 1 1 1 1 2 4 4 4 4 5 5 5 6 6 6
3 4 5 4 4 4 4 4 4 4 4 3 2 3 2 2 2 1 2 2 2 2 3 2 0 0 0 1 0 1 1 1 1 3 3 3 3 4 4 4 5 5 5
3 3 4 4 4 4 4 4 4 4 4 3 3 3 2 3 2 1 2 2 2 2 2 3 1 0 0 1 1 1 1 1 1 1 2 1 2 2 3 3 4 4 5
4 3 3 3 4 4 4 4 4 4 4 3 3 3 3 4 3 3 2 2 3 3 3 3 2 0 0 1 1 1 1 1 1 1 2 1 2 2 2 3 3 3 4
4 3 3 3 3 3 4 5 5 5 4 3 2 2 2 4 5 4 4 3 4 3 2 2 1 1 0 0 1 1 0 1 2 1 1 2 1 2 2 4 4 4 4
3 3 3 3 2 2 6 8 6 4 4 4 3 2 1 2 3 4 6 7 7 6 4 3 2 2 2 2 1 1 1 1 2 2 0 2 1 2 3 2 4 4 4
3 4 3 3 3 3 6 8 9 5 4 3 3 2 2 2 2 2 3 4 3 5 7 6 4 4 3 4 3 2 2 2 3 2 1 2 2 2 3 3 5 5 5
4 3 3 3 3 3 6 7 8 5 4 3 3 3 3 2 2 4 3 2 1 1 2 3 4 4 4 3 4 4 3 1 2 2 1 1 2 3 3 3 5 4 5
3 3 3 4 4 3 5 7 7 4 3 2 2 3 3 3 4 6 5 3 1 1 0 2 3 3 3 3 4 3 2 1 1 2 1 1 2 2 2 2 4 5 5
4 4 3 3 4 3 5 7 7 3 3 2 1 1 3 5 6 6 5 4 3 2 1 1 1 1 0 1 2 3 3 2 1 2 2 1 1 1 2 2 2 3 3
Wind_Direction
108 99 89 67 58 72 84 87 80 82 84 84 86 84 77 72 64 51 45 61 64 66 69 71 74 75 77 80 80 76 77 77 75 72 71 73 76 73 68 63 61 60 61
106 98 81 71 66 80 91 96 94 90 84 83 80 78 77 74 67 58 49 51 56 58 59 63 68 72 74 76 78 78 76 76 73 70 70 72 75 71 66 62 61 59 61
96 92 86 80 78 88 88 87 83 82 84 81 76 76 77 76 73 62 58 49 46 52 55 60 63 65 69 72 73 75 75 75 71 69 70 71 70 67 63 61 60 58 61
86 87 86 83 92 91 91 93 88 85 80 77 73 70 73 75 75 70 62 57 50 46 46 57 61 62 66 69 69 71 72 72 71 70 68 68 67 65 61 60 59 56 56
80 90 88 86 96 94 93 103 90 98 96 87 82 70 66 70 71 76 67 60 57 51 44 51 55 55 58 61 66 68 71 72 71 69 68 66 64 62 61 60 59 57 55
80 89 87 83 91 93 85 95 96 87 96 101 89 71 58 60 62 66 70 64 60 60 53 50 45 47 52 55 61 66 69 69 70 68 67 65 64 61 61 58 56 54 53
82 86 90 86 92 100 107 111 104 94 87 100 86 63 41 44 54 57 60 65 61 59 58 54 49 42 40 47 55 63 65 66 67 67 65 64 62 60 58 54 53 52 53
85 96 94 97 99 99 96 101 106 105 105 110 113 102 62 24 25 43 50 66 59 51 58 60 53 48 41 35 49 60 61 63 64 65 64 63 61 59 57 53 52 53 51
92 96 103 103 103 107 120 122 122 121 132 58 103 134 136 165 41 17 35 50 53 53 51 55 58 49 49 41 39 49 58 59 61 62 61 62 60 59 56 54 54 54 50
94 98 106 107 106 104 116 126 119 119 130 129 50 63 125 145 139 102 15 22 42 53 50 57 58 50 45 44 50 57 59 57 57 59 60 60 59 59 56 54 53 52 50
80 100 105 106 107 107 112 105 98 94 110 128 127 108 85 73 92 125 129 13 23 22 38 47 52 49 42 44 49 61 62 58 57 56 58 58 57 56 56 55 52 52 50
64 90 103 107 111 112 111 109 103 96 91 90 91 100 122 125 132 124 133 137 91 4 24 30 37 38 39 40 60 71 68 64 61 58 56 55 54 53 55 54 51 50 49
142 138 120 117 115 116 112 106 99 97 99 99 101 99 98 117 132 128 125 132 119 3 19 18 8 17 50 40 42 65 69 70 66 62 59 56 52 51 51 51 48 46 46
176 162 143 130 123 120 116 108 101 103 99 104 103 102 94 89 107 127 137 135 112 41 25 344 352 8 23 47 47 56 59 71 66 63 60 58 53 51 49 47 46 43 42
166 154 143 132 127 126 121 112 103 105 100 96 99 98 96 94 97 104 123 140 140 140 214 275 310 317 334 63 60 59 51 64 64 61 58 57 53 50 49 45 43 41 38
158 149 145 140 136 132 124 114 111 112 104 103 110 100 94 96 94 95 114 114 128 141 156 223 224 234 152 91 88 70 54 64 57 59 57 53 49 46 47 44 39 36 32
160 159 157 152 147 141 135 128 128 124 119 109 101 106 104 107 102 95 101 97 97 115 131 200 359 72 84 82 52 38 50 36 35 53 47 47 47 46 50 46 37 29 22
158 161 154 151 156 151 146 143 141 132 132 130 123 110 113 114 103 99 101 103 108 113 130 133 62 59 132 177 124 68 48 47 28 45 47 47 47 50 40 30 28 23 18
137 142 143 150 157 153 147 148 143 142 144 146 144 140 147 126 117 111 104 108 108 99 103 128 143 120 22 40 55 15 12 351 334 26 21 31 42 33 26 28 23 17 15
140 140 137 147 153 153 150 147 141 140 139 144 154 159 161 155 160 149 132 136 124 108 102 113 118 92 21 358 75 39 344 326 313 348 352 351 358 342 340 341 346 349 352
148 146 133 129 136 152 165 157 150 147 142 140 143 156 165 161 162 159 151 156 143 133 123 121 127 96 345 109 226 231 227 308 307 318 319 318 329 325 311 306 304 311 324
141 132 138 143 148 164 162 162 155 149 153 155 159 164 158 156 160 154 149 152 156 156 160 156 166 183 220 216 200 173 144 50 300 294 262 292 286 283 282 277 295 300 308
152 147 158 151 153 162 154 156 154 144 145 156 163 166 161 138 136 135 137 140 155 165 166 168 175 200 201 203 173 171 187 191 232 259 146 281 287 274 276 285 290 291 303
158 160 164 160 155 165 152 146 149 138 134 151 164 167 160 160 152 147 132 114 110 164 190 186 189 199 196 190 179 183 188 198 280 298 141 253 281 277 299 300 299 296 309
158 163 169 167 167 177 165 153 143 140 141 164 173 166 160 165 164 150 138 141 144 271 199 148 160 166 164 159 149 119 107 100 291 288 223 199 275 292 298 298 307 310 311
170 163 168 176 175 183 176 163 151 146 155 172 180 191 177 176 174 161 156 161 179 220 185 118 90 43 120 167 161 169 171 163 206 275 266 188 276 332 315 299 309 318 316